Location: Marsån
(66.4167°N, 22.2833°E)
Time: 11:29:57
(UTC+00:00)

RESURS DK-1 - Pass Details

Date: 24 February 2024
Orbit: 545 x 547 km, 69.9° (Epoch: 15 April)

Event Time Altitude Azimuth Distance (km) Brightness Sun altitude
Rises 20:27:50 0° 304° (NW) 2,737 7.0 -28.5°
Reaches altitude 10° 20:30:02 10° 302° (WNW) 1,840 5.8 -28.6°
Enters shadow 20:32:20 32° 292° (WNW) 976 4.0 -28.8°
